Hourly Data Report for September 02, 2017

All times are specified in Local Standard Time (LST). Add 1 hour to adjust for Daylight Saving Time where and when it is observed.

ARVIAT A
NUNAVUT

61°05'38.000" N
94°04'18.000" W
10.40 m
2300427
71174
YEK

Download Data

Hourly Data (September 2017)
Hourly Data Report for September 2, 2017
Temp Definition
°C
Dew Point Temp Definition
°C
Rel Hum Definition
%
Wind Dir Definition
10's deg

Wind Spd Definition
km/h
Visibility Definition
km
Stn Press Definition
kPa
Hmdx Definition


Wind Chill Definition


Weather Definition


TIME
00:00 Legend Double Dagger 9.8 9.5 98 35 37 4.8 98.87     Rain,Fog
01:00 Legend Double Dagger 9.5 9.2 98 36 32 8.1 98.82     Rain,Fog
02:00 Legend Double Dagger 9.3 8.9 97 36 37 6.4 98.84     Rain,Fog
03:00 Legend Double Dagger 9.1 8.8 98 35 39 6.4 98.81     Rain,Fog
04:00 Legend Double Dagger 9.0 8.7 98 35 43 4.8 98.79     Moderate Rain,Fog
05:00 Legend Double Dagger 8.7 8.3 97 35 41 4.8 98.78     Rain,Fog
06:00 Legend Double Dagger 8.3 7.9 97 35 45 6.4 98.83     Moderate Rain,Fog
07:00 Legend Double Dagger 7.5 7.1 97 35 43 6.4 98.87     Moderate Rain,Fog
08:00 Legend Double Dagger 7.1 6.5 96 35 43 6.4 98.92     Rain,Fog
09:00 Legend Double Dagger 6.6 6.1 97 35 43 6.4 98.98     Moderate Rain,Fog
10:00 Legend Double Dagger 6.1 5.7 97 34 45 6.4 99.01     Rain,Fog
11:00 Legend Double Dagger 5.8 5.4 97 35 50 4.8 99.07     Rain,Fog
12:00 Legend Double Dagger 5.7 5.3 97 34 46 6.4 99.11     Rain,Fog
13:00 Legend Double Dagger 5.6 5.2 97 34 39 6.4 99.17     Rain,Fog
14:00 Legend Double Dagger 5.7 5.2 97 34 41 8.1 99.22     Rain,Fog
15:00 Legend Double Dagger 6.0 5.1 94 34 48 12.9 99.28     Rain
16:00 Legend Double Dagger 6.5 5.3 92 34 50 16.1 99.34     Rain
17:00 Legend Double Dagger 6.6 5.3 91 34 45 16.1 99.42     Rain
18:00 Legend Double Dagger 7.0 5.0 87 35 48 16.1 99.47     Rain
19:00 Legend Double Dagger 6.7 4.8 87 34 52 16.1 99.54     LegendNANA
20:00 Legend Double Dagger 6.9 4.7 86 35 46 16.1 99.58     LegendNANA
21:00 Legend Double Dagger 6.3 5.1 92 34 50 14.5 99.61     LegendNANA
22:00 Legend Double Dagger 6.3 5.0 91 34 41 16.1 99.61     LegendNANA
23:00 Legend Double Dagger 7.0 4.4 84 35 45 16.1 99.60     LegendNANA

Notes on Data Quality.

Legend

  • E = Estimated
  • M = Missing
  • NA = Not Available
  • ‡ = Partner data that is not subject to review by the National Climate Archives
Date modified: